Find Starlink 32612

NORAD ID: 61972 Int'l Des: 2024-210 Owner: SPXS Country: US Constellation: starlink operational
LEOCIRCULAR

当前视图

正在加载3D地球...

关于 Starlink 32612

正在加载描述...

即将过境

Passes for default location (London). Set your location on the main map for personalized predictions.

高度历史

Loading altitude history...

两行轨道根数

1 61972U 24210P 26145.17141771 .00016549 00000-0 60932-3 0 9999
2 61972 43.0001 108.1682 0001206 273.3565 86.7149 15.27591487 86571
Epoch: May 25, 2026 • Age: 4 hours

当前状态

高度 483.6 km
速度 7.63 km/s
星下点 -5.41°S, 70.96°W
发射日期 Nov 14, 2024
运行时间 1.5 years
类型 internet

技术详情

分类 Payload
质量 730.00 kg
干质量 700.00 kg
总质量 730.00 kg
长度 0.30 m
直径 4.10 m
跨度 29.00 m
形状 Box + pan
制造商 SPXS
平台类型 Starlink V2M
阶段状态 In Orbit
所有者/国家 SPXS/US

Most Searched